Погода в Янгиере

Узбекистан     37°45′03″N   67°35′04″E
темп.,
°C
ветер,
м/с
пор.,
м/с
влажн.,
%
обл.,
%
осадки,
мм/ч
давл.,
гПа
погр.,
м
27 февраля, сб
сб2723:000зюз22360 0.0 103050
02:00−1юз11390 0.0 102921
05:00−2юз22390 0.0 102922
08:000юз233478 0.0 1030136
11:00+4ю112788 0.0 1031559
14:00+7св012613 0.0 10291037
17:00+8всв12277 0.0 10281027
20:00+5св22370 0.0 102926
28 февраля, вс
вс2823:00+5св33380 0.0 102733
02:00+3св34480 0.0 102568
05:00+3ссв33520 0.0 102238
08:00+4ссв33480 0.0 102151
11:00+10св34280 0.0 1020459
14:00+14в23190 0.0 1017839
17:00+15ююв11180 0.0 1016732
20:00+10ююв23310 0.0 101822
1 марта, пн
пн123:00+7ссз01370 0.0 101822
02:00+7св23340 0.0 101822
05:00+7св34371 0.0 101834
08:00+8св343590 0.0 101952
11:00+15всв442255 0.0 1019392
14:00+19всв33148 0.0 1018873
17:00+19юв11165 0.0 1017820
20:00+12ю12260 0.0 101823
2 марта, вт
вт223:00+10св11320 0.0 101823
02:00+11св342867 0.0 101932
05:00+10св452983 0.0 101752
08:00+12св3428100 0.0 101865
11:00+16св3422100 0.0 1018206
14:00+20вюв1215100 0.0 1018586
17:00+19зюз4520100 0.0 1018341
20:00+14ююз1128100 0.0 102023
3 марта, ср
ср323:00+13юв123398 0.0 102023
02:00+14св3430100 0.0 101936
05:00+10ссв344966 0.0 101870
08:00+11св354846 0.0 101994
11:00+16в113358 0.0 1019549
14:00+19ююз22270 0.0 10171515
17:00+19ююз21280 0.0 10161601
20:00+15ю224067 0.0 101523